Regional Weather Roundup
Issued by NWS Austin/San Antonio, TX

Home | Current Version | Previous Version | Text Only | Print | Product List | Glossary On
Versions: 1 2 3 4 5 6 7 8 9 10 11 12 13 14 15 16 17 18 19 20 21 22 23 24 25 26 27 28 29 30 31 32 33 34 35 36 37 38 39 40 41 42 43 44 45 46 47 48 49 50
000
ASUS44 KEWX 121710
RWREWX
SOUTH TEXAS REGIONAL WEATHER ROUNDUP
NATIONAL WEATHER SERVICE AUSTIN/SAN ANTONIO TX
1100 AM CST TUE DEC 12 2017

NOTE: "FAIR" INDICATED FEW OR NO CLOUDS BELOW 12,000 FEET WITH NO
SIGNIFICANT WEATHER AND/OR OBSTRUCTIONS TO VISIBILITY.

* - THESE STATIONS ARE NOT NWS OR FAA STATIONS...AND ARE NOT SUBJECT
    TO NWS AND FAA QUALITY CONTROL.

TXZ171-172-183>190-121800-
TEXAS HILL COUNTRY AND EDWARDS PLATEAU

CITY           SKY/WX    TMP DP  RH WIND       PRES   REMARKS
JUNCTION       SUNNY     52  26  36 NE9       30.46S
*LLANO         SUNNY     55  30  38 N14       30.49F
BURNET         SUNNY     54  28  36 N8G20     30.45S
*HORSESHOE BAY SUNNY     55  29  36 N9G16     30.44F
*KERRVILLE     SUNNY     56  23  28 N12       30.43R
*FREDERICKSBRG SUNNY     53  25  33 N12       30.43S
*ROCKSPRINGS   NOT AVBL
*BOERNE STAGE  SUNNY     54  27  35 N12G18    30.42S
*CASTROVILLE   SUNNY     61  26  26 NE10G16   30.43S
HONDO          SUNNY     64  26  23 N13       30.42R
*UVALDE        SUNNY     62  24  24 NE9       30.44S
DEL RIO        SUNNY     57  30  35 W13       30.48S
LAUGHLIN AFB   SUNNY     58  29  32 W10       30.47S
CARRIZO SPRGS  SUNNY     61  32  33 NE7       30.44R
*EAGLE PASS    SUNNY     61  28  29 VRB7      30.46S
$$

TXZ173-191>194-202-209-217>225-228-121800-
CENTRAL AND SOUTH CENTRAL TEXAS

CITY           SKY/WX    TMP DP  RH WIND       PRES   REMARKS
GEORGETOWN     SUNNY     55  29  36 N13       30.44S
AUSTIN/BERGSTM MOSUNNY   58  28  32 N17       30.41S
AUSTIN/MABRY   SUNNY     58  27  30 N9G18     30.42F
*AUSTIN/EXEC   SUNNY     55  28  35 N18       30.42F
*LAGO VISTA    SUNNY     55  29  37 N10G18    30.42F
SAN MARCOS     SUNNY     59  32  36 NE17      30.42R
NEW BRAUNFELS  SUNNY     60  28  29 NE18G24   30.39R
RANDOLPH AFB   SUNNY     59  27  29 N17       30.40R
PT SAN ANTONIO SUNNY     61  26  27 NE16G22   30.39R
SAN ANTONIO    MOSUNNY   59  26  28 NE15G25   30.41S
STINSON FIELD  SUNNY     62  27  26 N13       30.39S
*LA GRANGE     SUNNY     58  32  38 N12G20    30.37
*GIDDINGS      SUNNY     55  29  36 N14       30.40S
*GONZALES      SUNNY     59  30  33 N17       30.39R
$$

TXZ163>164-176>182-195>201-210>213-226-227-235-121800-
SOUTHEAST TEXAS

CITY           SKY/WX    TMP DP  RH WIND       PRES   REMARKS
COLLEGE STN    SUNNY     57  30  35 N16       30.39R
*BRYAN         SUNNY     55  30  38 N14G20    30.40S
*CALDWELL      SUNNY     55  30  39 N13       30.40S
*CROCKETT        N/A     54  28  37 NW9       30.39F
*BRENHAM       SUNNY     58  32  36 N12G24    30.38F
HUNTSVILLE     SUNNY     55  30  38 N8G21     30.36S
CONROE         SUNNY     58  31  35 N12G18    30.35S
HOUSTON BUSH   MOSUNNY   60  31  33 N15G25    30.33S
HOUSTON HOBBY  SUNNY     59  32  36 N20       30.32S
*HOUSTON SW AP SUNNY     59  31  34 N12G20    30.33F
PEARLAND         N/A     59  32  36 N16       30.33S
HOUSTON HOOKS  SUNNY     58  32  37 N12       30.34S
ELLINGTON FLD  MOSUNNY   59  32  36 NW14      30.33F
SUGAR LAND     SUNNY     61  30  31 N16       30.33S
*HOUSTON EXEC  NOT AVBL
*CLEVELAND MUN SUNNY     57  27  32 N10G21    30.34S
*WHARTON       SUNNY     58  28  31 N20       30.35F
*COLUMBUS      FAIR     N/A N/A N/A N13G18    30.37S
*EAGLE LAKE    SUNNY     60  33  35 N16G22    30.36S
$$

TXZ214>216-236>238-121800-
THE UPPER TEXAS COAST

CITY           SKY/WX    TMP DP  RH WIND       PRES   REMARKS
*ORANGE        SUNNY     59  35  40 N9G16     30.30F
PORT ARTHUR    SUNNY     61  34  36 N16       30.28F
GALVESTON      SUNNY     59  39  47 N21G26    30.31S
ANGLETON       SUNNY     62  33  33 N18       30.32S
*BAY CITY      SUNNY     61  33  34 N17       30.33R
PALACIOS       SUNNY     63  34  33 N17       30.33F
$$

TXZ229>234-239>247-121800-
TEXAS COASTAL BEND AND RIO GRANDE PLAINS

CITY           SKY/WX    TMP DP  RH WIND       PRES   REMARKS
VICTORIA       SUNNY     61  29  29 NE16G24   30.37S
*BEEVILLE      SUNNY     63  30  28 NE20      30.38S
ROCKPORT       SUNNY     62  33  33 NE17      30.35S
*PORT ARANSAS  NOT AVBL
*PORT LAVACA   SUNNY     60  34  38 NE16      30.36R
*INGLESIDE     NOT AVBL
CORPUS CHRISTI PTSUNNY   62  35  36 NE20      30.36R
CORPUS NAS     PTSUNNY   64  42  44 NE14      30.35S
*ROBSTOWN      SUNNY     61  35  38 NE10      30.37S
ALICE          SUNNY     63  31  30 NE16      30.37S
KINGSVILLE NAS PTSUNNY   63  38  39 N15G24    30.37R
COTULLA        SUNNY     62  27  26 E10       30.42R
*FAITH RANCH   SUNNY     63  28  27 NE10G18   30.44S
LAREDO         SUNNY     70  43  37 NE23      30.43
$$

TXZ248>255-121800-
DEEP SOUTH TEXAS

CITY           SKY/WX    TMP DP  RH WIND       PRES   REMARKS
BROWNSVILLE    MOSUNNY   71  44  37 NW10      30.34S
PORT ISABEL    MOSUNNY   68  43  40 NW13      30.33S
*SOUTH PADRE   NOT AVBL
HARLINGEN      SUNNY     67  45  45 N10       30.33S
*HEBBRONVILLE  SUNNY     63  26  24 NE18      30.38S
MCALLEN        SUNNY     70  46  42 NW8       30.35S
*WESLACO       SUNNY     68  43  39 N13G18    30.34F
FALFURRIAS     NOT AVBL
EDINBURG       NOT AVBL
*ZAPATA        MOSUNNY   66  35  31 N12       30.38S
$$

TXZ213>215-236>238-242>244-246-247-251-254-255-121800-
CMAN STATIONS

STATION/POSITION TIME  TEMP    WIND        PRES    WAVE
                       AIR SEA DIR/SP/G            HT/PER
                 (UTC) (F)     (DEG/KT/KT) (MB)    (FT/S)
SABINE PASS      1648   56 58   10/ 15/ 23 1027.1
SEA RIM ST PARK  1700   58      10/ 14/ 18 1025.9
NORTH JETTY/GLS  1642      57  350/ 18/ 20 1025.4
EAGLE POINT      1648   56 55   30/ 11/ 16 1026.6
MORGANS POINT    1648   57 57  360/ 12/ 16 1026.3
PORT O`CONNOR    1648   56 55   10/ 13/ 18 1027.4
MALAQUITE BEACH  1648   59 61   10/ 16/ 19 1027.2
BAFFIN BAY       1648   57 55   10/ 17/ 20 1027.8
PORT ISABEL      1648   63 56  330/  8/ 11 1026.8
$$



USA.gov is the U.S. government's official web portal to all federal, state and local government web resources and services.